Flag for Venezuela Weather past 2 weeks in Valencia, Venezuela

Now
88 °F

Passing clouds.


Feels Like: 93 °F
Forecast: 67 / 90 °F
Wind: 6 mph from Southeast

Location: Valencia Airport

Current Time: Jul 3, 2015 at 11:16:49 AM

Latest Report: Jul 3, 2015 at 10:30 AM


Visibility: N/A

Pressure: 30.01 "Hg

Humidity: 55%

Dew point: 70 °F

Location of ValenciaLocation

Historic Weather in Valencia — Graph

°F

Valencia temperature yesterday

Maximum temperature yesterday: 91 °F (at 1:30 PM)
Minimum temperature yesterday: 75 °F (at 6:30 AM)
Average temperature yesterday: 84 °F

Past Weeks' High & Low Weather Summary

 TemperatureHumidityPressure
High95 °F (Jun 21, 3:30 PM)94% (Jun 23, 5:30 AM)30.09 "Hg (Jun 23, 5:30 AM)
Low73 °F (Jun 23, 5:30 AM)38% (Jun 29, 4:30 PM)29.89 "Hg (Jun 18, 4:30 PM)
Average83 °F66%30.01 "Hg
* Reported Jun 18 9:30 AM — Jul 3 9:30 AM, Valencia, Weather by CustomWeather, © 2015

Note: Actual official high and low records may vary slightly from our data, if they occured in-between our weather recording intervals... More about our weather records

Advertising

Valencia weather history for previous 24 hours

 ConditionsComfort  
Time TempWeatherWind HumidityBarometerVisibility
9:30 AM
Fri, Jul 3
86 °FScattered clouds.7 mph59%30.04 "HgN/A
8:30 AM82 °FPassing clouds.5 mph66%30.01 "HgN/A
7:30 AM81 °FPassing clouds.5 mph74%30.01 "HgN/A
6:30 AM77 °FPassing clouds.2 mph83%29.98 "HgN/A
5:30 AM77 °FPassing clouds.1 mph83%29.98 "HgN/A
4:30 AM79 °FPassing clouds.6 mph74%29.98 "HgN/A
1:30 AM81 °FPassing clouds.5 mph74%30.01 "HgN/A
10:30 PM
Thu, Jul 2
81 °FPassing clouds.6 mph74%29.98 "HgN/A
9:30 PM81 °FPassing clouds.2 mph74%29.98 "HgN/A
8:30 PM82 °FPassing clouds.6 mph70%29.95 "HgN/A
7:30 PM84 °FPassing clouds.6 mph66%29.92 "HgN/A
6:30 PM84 °FPassing clouds.8 mph66%29.92 "HgN/A
5:30 PM88 °FScattered clouds.8 mph59%29.89 "HgN/A
4:30 PM91 °FPartly sunny.5 mph52%29.89 "HgN/A
3:30 PM91 °FScattered clouds.5 mph52%29.92 "HgN/A
2:30 PM91 °FBroken clouds.2 mph49%29.95 "HgN/A
1:30 PM91 °FPartly sunny.3 mph46%29.98 "HgN/A
12:30 PM90 °FPartly sunny.6 mph49%30.01 "HgN/A
11:30 AM88 °FPartly sunny.7 mph52%30.04 "HgN/A
Weather by CustomWeather, © 2015

See weather overviewHow to use our weather pages